Gesamt
Gunnedah Airport (Gunnedah, New South Wales) GUH Wetter
|
Gunnedah, New South Wales (GUH / YGDH)
Klarer Himmel
Leichter Wind |
|
25 °C |
There is no TAF data available at GUH or any nearby airports.
Kürzlicher METAR-Verlauf für GUH
| Date | Time (AEST) | Flight Rules | Wind Dir. | Speed | Type | Height AGL (ft) | Visibility | Temp (°C) | Temp (°F) | Dew Point (°C) | Dew Point (°F) | Rel. Humid. | Pressure | Density Altitude | Remarks |
|---|---|---|---|---|---|---|---|---|---|---|---|---|---|---|---|
| 04-Mai | 15:00 | n/a | 280° | 6 kt | Missing | 25° | 77° | 11° | 51° | 41% | 1016 mb | 1.981 ft | |||
| 04-Mai | 14:00 | n/a | 310° | 6 kt | Missing | 25° | 77° | 11° | 51° | 41% | 1016 mb | 1.981 ft | |||
| 04-Mai | 13:00 | n/a | 320° | 5 kt | Missing | 24° | 75° | 11° | 51° | 44% | 1016 mb | 1.861 ft | |||
| 04-Mai | 12:00 | n/a | 280° | 6 kt | Missing | 24° | 75° | 11° | 51° | 44% | 1017 mb | 1.831 ft | |||
| 04-Mai | 11:00 | n/a | 250° | 5 kt | Missing | 23° | 73° | 11° | 51° | 47% | 1018 mb | 1.681 ft | |||
| 04-Mai | 10:00 | n/a | 200° | 4 kt | Missing | 21° | 69° | 11° | 51° | 53% | 1018 mb | 1.441 ft | |||
| 04-Mai | 09:00 | n/a | 140° | 5 kt | Missing | 21° | 69° | 12° | 53° | 56% | 1019 mb | 1.412 ft | |||
| 04-Mai | 08:00 | n/a | 150° | 4 kt | Missing | 18° | 64° | 11° | 51° | 64% | 1018 mb | 1.081 ft | |||
| 04-Mai | 07:00 | n/a | 150° | 6 kt | Missing | 16° | 60° | 11° | 51° | 72% | 1018 mb | 841 ft | |||
| 04-Mai | 06:00 | n/a | 150° | 5 kt | Missing | 14° | 57° | 10° | 50° | 77% | 1017 mb | 631 ft | |||
| 04-Mai | 05:00 | n/a | 140° | 5 kt | Missing | 14° | 57° | 9° | 48° | 72% | 1017 mb | 631 ft | |||
| 04-Mai | 04:00 | n/a | 160° | 6 kt | Missing | 14° | 57° | 9° | 48° | 72% | 1017 mb | 631 ft | |||
| 04-Mai | 03:00 | n/a | 160° | 5 kt | Missing | 13° | 55° | 8° | 46° | 72% | 1017 mb | 511 ft | |||
| 04-Mai | 02:00 | n/a | 150° | 4 kt | Missing | 12° | 53° | 8° | 46° | 76% | 1018 mb | 361 ft | |||
| 04-Mai | 01:00 | n/a | 160° | 6 kt | Missing | 13° | 55° | 8° | 46° | 72% | 1018 mb | 481 ft | |||
| 04-Mai | 00:00 | n/a | 140° | 6 kt | Missing | 13° | 55° | 7° | 44° | 67% | 1018 mb | 481 ft | |||
| 03-Mai | 23:00 | n/a | 190° | 4 kt | Missing | 13° | 55° | 7° | 44° | 67% | 1019 mb | 452 ft | |||
| 03-Mai | 22:00 | n/a | 310° | 2 kt | Missing | 13° | 55° | 6° | 42° | 62% | 1019 mb | 452 ft | |||
| 03-Mai | 21:00 | n/a | 80° | 4 kt | Missing | 14° | 57° | 7° | 44° | 63% | 1018 mb | 601 ft | |||
| 03-Mai | 20:00 | n/a | 50° | 3 kt | Missing | 15° | 59° | 7° | 44° | 59% | 1018 mb | 721 ft | |||
| 03-Mai | 19:00 | n/a | 110° | 3 kt | Missing | 16° | 60° | 6° | 42° | 51% | 1017 mb | 871 ft | |||
| 03-Mai | 18:00 | n/a | 120° | 3 kt | Missing | 19° | 66° | 6° | 42° | 43% | 1017 mb | 1.231 ft | |||
| 03-Mai | 17:00 | n/a | 120° | 5 kt | Missing | 24° | 75° | 6° | 42° | 31% | 1017 mb | 1.831 ft | |||
| 03-Mai | 16:00 | n/a | 60° | 2 kt | Missing | 27° | 80° | 7° | 44° | 28% | 1017 mb | 2.191 ft |
Anmelden
| Ihr Browser wird nicht unterstützt. aktualisieren Sie Ihren Browser |
